Tracking 18796 objects as of 21-September-2017
HD Live streaming from Space Station
objects crossing your sky now

NAVSTAR 28 (USA 85)

Track NAVSTAR 28 (USA 85) now!
NAVSTAR 28 (USA 85) is classified as:


NORAD ID: 22231
Int'l Code: 1992-079A
Perigee: 21,153.5 km
Apogee: 21,349.6 km
Inclination: 55.3 °
Period: 761.5 minutes
Semi major axis: 27622 km
RCS: 3.981 m2 (large)
Launch date: November 22, 1992
Source: United States (US)
Launch site: AIR FORCE EASTERN TEST RANGE (AFETR)
PRN:
aabbcc
Your satellite tracking list
Your tracking list is empty





NASA's NSSDC Master Catalog

Two Line Element Set (TLE):
1 22231U 92079A   17263.29728724 -.00000027 +00000-0 +00000-0 0  9997
2 22231 055.2678 223.7172 0035496 298.5402 061.0584 01.89107098001789
Source of the keplerian elements: AFSPC